Time,TemperatureF,DewpointF,PressureIn,WindDirection,WindDirectionDegrees,WindSpeedMPH,WindSpeedGustMPH,Humidity,HourlyPrecipIn,Conditions,Clouds,dailyrainin,SolarRadiationWatts/m^2,SoftwareType,DateUTC
2013-05-05 00:03:00,52.0,36.0,-100.00,West,267,8.0,16.0,54,0.00,,,0.00,0.000000,,2013-05-05 04:03:00,
2013-05-05 00:11:00,50.0,38.0,-100.00,WSW,258,9.0,19.0,64,0.00,,,0.00,0.000000,,2013-05-05 04:11:00,
2013-05-05 00:33:00,50.0,38.0,-100.00,WSW,258,9.0,19.0,64,0.00,,,0.00,0.000000,,2013-05-05 04:33:00,
2013-05-05 00:43:00,50.0,38.0,-100.00,WSW,258,9.0,19.0,64,0.00,,,0.00,0.000000,,2013-05-05 04:43:00,
2013-05-05 00:53:00,50.0,38.0,-100.00,WSW,258,9.0,19.0,64,0.00,,,0.00,0.000000,,2013-05-05 04:53:00,
2013-05-05 01:02:00,50.0,38.0,-100.00,WSW,258,9.0,19.0,64,0.00,,,0.00,0.000000,,2013-05-05 05:02:00,
2013-05-05 01:11:00,48.0,41.0,-100.00,West,264,7.0,16.0,77,0.01,,,0.01,0.000000,,2013-05-05 05:11:00,
2013-05-05 01:42:00,48.0,41.0,-100.00,West,264,7.0,16.0,77,0.01,,,0.01,0.000000,,2013-05-05 05:42:00,
2013-05-05 01:52:00,48.0,41.0,-100.00,West,264,7.0,16.0,77,0.01,,,0.01,0.000000,,2013-05-05 05:52:00,
2013-05-05 02:02:00,48.0,41.0,-100.00,West,264,7.0,16.0,77,0.01,,,0.01,0.000000,,2013-05-05 06:02:00,
2013-05-05 02:11:00,49.0,42.0,-100.00,West,269,8.0,21.0,78,0.00,,,0.01,0.000000,,2013-05-05 06:11:00,
2013-05-05 02:42:00,49.0,42.0,-100.00,West,269,8.0,21.0,78,0.00,,,0.01,0.000000,,2013-05-05 06:42:00,
2013-05-05 02:52:00,49.0,42.0,-100.00,West,269,8.0,21.0,78,0.00,,,0.01,0.000000,,2013-05-05 06:52:00,
2013-05-05 03:01:00,49.0,42.0,-100.00,West,269,8.0,21.0,78,0.00,,,0.01,0.000000,,2013-05-05 07:01:00,
2013-05-05 03:11:00,50.0,43.0,-100.00,West,267,11.0,20.0,78,0.00,,,0.01,0.000000,,2013-05-05 07:11:00,
2013-05-05 03:42:00,50.0,43.0,-100.00,West,267,11.0,20.0,78,0.00,,,0.01,0.000000,,2013-05-05 07:42:00,
2013-05-05 03:52:00,50.0,43.0,-100.00,West,267,11.0,20.0,78,0.00,,,0.01,0.000000,,2013-05-05 07:52:00,
2013-05-05 04:02:00,50.0,43.0,-100.00,West,267,11.0,20.0,78,0.00,,,0.01,0.000000,,2013-05-05 08:02:00,
2013-05-05 04:11:00,49.0,42.0,-100.00,WSW,248,10.0,20.0,77,0.00,,,0.01,0.000000,,2013-05-05 08:11:00,
2013-05-05 04:32:00,49.0,42.0,-100.00,WSW,248,10.0,20.0,77,0.00,,,0.01,0.000000,,2013-05-05 08:32:00,
2013-05-05 04:42:00,49.0,42.0,-100.00,WSW,248,10.0,20.0,77,0.00,,,0.01,0.000000,,2013-05-05 08:42:00,
2013-05-05 04:53:00,49.0,42.0,-100.00,WSW,248,10.0,20.0,77,0.00,,,0.01,0.000000,,2013-05-05 08:53:00,
2013-05-05 05:01:00,49.0,42.0,-100.00,WSW,248,10.0,20.0,77,0.00,,,0.01,0.000000,,2013-05-05 09:01:00,
2013-05-05 05:11:00,49.0,42.0,-100.00,West,271,8.0,19.0,78,0.00,,,0.01,0.000000,,2013-05-05 09:11:00,
2013-05-05 05:42:00,49.0,42.0,-100.00,West,271,8.0,19.0,78,0.00,,,0.01,0.000000,,2013-05-05 09:42:00,
2013-05-05 05:52:00,49.0,42.0,-100.00,West,271,8.0,19.0,78,0.00,,,0.01,0.000000,,2013-05-05 09:52:00,
2013-05-05 06:03:00,49.0,42.0,-100.00,West,271,8.0,19.0,78,0.00,,,0.01,0.000000,,2013-05-05 10:03:00,
2013-05-05 06:11:00,47.0,41.0,-100.00,West,259,6.0,17.0,80,0.01,,,0.02,0.000000,,2013-05-05 10:11:00,
2013-05-05 06:32:00,47.0,41.0,-100.00,West,259,6.0,17.0,80,0.01,,,0.02,0.000000,,2013-05-05 10:32:00,
2013-05-05 06:42:00,47.0,41.0,-100.00,West,259,6.0,17.0,80,0.01,,,0.02,0.000000,,2013-05-05 10:42:00,
2013-05-05 06:53:00,47.0,41.0,-100.00,West,259,6.0,17.0,80,0.01,,,0.02,0.000000,,2013-05-05 10:53:00,
2013-05-05 07:02:00,47.0,41.0,-100.00,West,259,6.0,17.0,80,0.01,,,0.02,0.000000,,2013-05-05 11:02:00,
2013-05-05 07:11:00,45.0,42.0,-100.00,West,259,7.0,17.0,90,0.07,,,0.09,2.000000,,2013-05-05 11:11:00,
2013-05-05 07:32:00,45.0,42.0,-100.00,West,259,7.0,17.0,90,0.07,,,0.09,2.000000,,2013-05-05 11:32:00,
2013-05-05 07:42:00,45.0,42.0,-100.00,West,259,7.0,17.0,90,0.07,,,0.09,2.000000,,2013-05-05 11:42:00,
2013-05-05 07:52:00,45.0,42.0,-100.00,West,259,7.0,17.0,90,0.07,,,0.09,2.000000,,2013-05-05 11:52:00,
2013-05-05 08:02:00,45.0,42.0,-100.00,West,259,7.0,17.0,90,0.07,,,0.09,2.000000,,2013-05-05 12:02:00,
2013-05-05 09:11:00,45.0,42.0,-100.00,West,281,6.0,12.0,89,-99.99,,,0.13,85.000000,,2013-05-05 13:11:00,
2013-05-05 09:42:00,45.0,42.0,-100.00,West,281,6.0,12.0,89,-99.99,,,0.13,85.000000,,2013-05-05 13:42:00,
2013-05-05 09:52:00,45.0,42.0,-100.00,West,281,6.0,12.0,89,-99.99,,,0.13,85.000000,,2013-05-05 13:52:00,
2013-05-05 10:02:00,45.0,42.0,-100.00,West,281,6.0,12.0,89,-99.99,,,0.13,85.000000,,2013-05-05 14:02:00,
2013-05-05 10:11:00,46.0,43.0,-100.00,West,272,6.0,13.0,88,0.05,,,0.18,75.000000,,2013-05-05 14:11:00,
2013-05-05 10:42:00,46.0,43.0,-100.00,West,272,6.0,13.0,88,0.05,,,0.18,75.000000,,2013-05-05 14:42:00,
2013-05-05 10:52:00,46.0,43.0,-100.00,West,272,6.0,13.0,88,0.05,,,0.18,75.000000,,2013-05-05 14:52:00,
2013-05-05 11:02:00,46.0,43.0,-100.00,West,272,6.0,13.0,88,0.05,,,0.18,75.000000,,2013-05-05 15:02:00,
2013-05-05 11:11:00,45.0,42.0,-100.00,West,276,6.0,12.0,90,0.09,,,0.27,57.000000,,2013-05-05 15:11:00,
2013-05-05 11:33:00,45.0,42.0,-100.00,West,276,6.0,12.0,90,0.09,,,0.27,57.000000,,2013-05-05 15:33:00,
2013-05-05 11:43:00,45.0,42.0,-100.00,West,276,6.0,12.0,90,0.09,,,0.27,57.000000,,2013-05-05 15:43:00,
2013-05-05 11:53:00,45.0,42.0,-100.00,West,276,6.0,12.0,90,0.09,,,0.27,57.000000,,2013-05-05 15:53:00,
2013-05-05 12:03:00,45.0,42.0,-100.00,West,276,6.0,12.0,90,0.09,,,0.27,57.000000,,2013-05-05 16:03:00,
2013-05-05 12:11:00,47.0,44.0,-100.00,West,268,7.0,12.0,88,0.05,,,0.32,161.000000,,2013-05-05 16:11:00,
2013-05-05 12:42:00,47.0,44.0,-100.00,West,268,7.0,12.0,88,0.05,,,0.32,161.000000,,2013-05-05 16:42:00,
2013-05-05 12:53:00,47.0,44.0,-100.00,West,268,7.0,12.0,88,0.05,,,0.32,161.000000,,2013-05-05 16:53:00,
2013-05-05 13:02:00,47.0,44.0,-100.00,West,268,7.0,12.0,88,0.05,,,0.32,161.000000,,2013-05-05 17:02:00,
2013-05-05 13:11:00,47.0,43.0,-100.00,West,259,6.0,13.0,86,0.04,,,0.36,125.000000,,2013-05-05 17:11:00,
2013-05-05 13:32:00,47.0,43.0,-100.00,West,259,6.0,13.0,86,0.04,,,0.36,125.000000,,2013-05-05 17:32:00,
2013-05-05 13:42:00,47.0,43.0,-100.00,West,259,6.0,13.0,86,0.04,,,0.36,125.000000,,2013-05-05 17:42:00,
2013-05-05 13:52:00,47.0,43.0,-100.00,West,259,6.0,13.0,86,0.04,,,0.36,125.000000,,2013-05-05 17:52:00,
2013-05-05 14:01:00,47.0,43.0,-100.00,West,259,6.0,13.0,86,0.04,,,0.36,125.000000,,2013-05-05 18:01:00,
2013-05-05 14:11:00,48.0,45.0,-100.00,West,264,8.0,16.0,89,0.11,,,-99.99,106.000000,,2013-05-05 18:11:00,
2013-05-05 14:42:00,48.0,45.0,-100.00,West,264,8.0,16.0,89,0.11,,,-99.99,106.000000,,2013-05-05 18:42:00,
2013-05-05 14:52:00,48.0,45.0,-100.00,West,264,8.0,16.0,89,0.11,,,-99.99,106.000000,,2013-05-05 18:52:00,
2013-05-05 15:01:00,48.0,45.0,-100.00,West,264,8.0,16.0,89,0.11,,,-99.99,106.000000,,2013-05-05 19:01:00,
2013-05-05 16:11:00,52.0,49.0,-100.00,West,265,7.0,16.0,88,-99.99,,,0.53,280.000000,,2013-05-05 20:11:00,
2013-05-05 16:42:00,52.0,49.0,-100.00,West,265,7.0,16.0,88,-99.99,,,0.53,280.000000,,2013-05-05 20:42:00,
2013-05-05 16:52:00,52.0,49.0,-100.00,West,265,7.0,16.0,88,-99.99,,,0.53,280.000000,,2013-05-05 20:52:00,
2013-05-05 17:02:00,52.0,49.0,-100.00,West,265,7.0,16.0,88,-99.99,,,0.53,280.000000,,2013-05-05 21:02:00,
2013-05-05 18:11:00,52.0,49.0,-100.00,WSW,253,7.0,15.0,91,-99.99,,,0.60,221.000000,,2013-05-05 22:11:00,
2013-05-05 18:34:00,52.0,49.0,-100.00,WSW,253,7.0,15.0,91,-99.99,,,0.60,221.000000,,2013-05-05 22:34:00,
2013-05-05 18:42:00,52.0,49.0,-100.00,WSW,253,7.0,15.0,91,-99.99,,,0.60,221.000000,,2013-05-05 22:42:00,
2013-05-05 18:52:00,52.0,49.0,-100.00,WSW,253,7.0,15.0,91,-99.99,,,0.60,221.000000,,2013-05-05 22:52:00,
2013-05-05 19:02:00,52.0,49.0,-100.00,WSW,253,7.0,15.0,91,-99.99,,,0.60,221.000000,,2013-05-05 23:02:00,
2013-05-05 19:11:00,50.0,48.0,-100.00,WSW,254,9.0,17.0,92,0.01,,,0.61,86.000000,,2013-05-05 23:11:00,
2013-05-05 19:32:00,50.0,48.0,-100.00,WSW,254,9.0,17.0,92,0.01,,,0.61,86.000000,,2013-05-05 23:32:00,
2013-05-05 19:42:00,50.0,48.0,-100.00,WSW,254,9.0,17.0,92,0.01,,,0.61,86.000000,,2013-05-05 23:42:00,
2013-05-05 19:52:00,50.0,48.0,-100.00,WSW,254,9.0,17.0,92,0.01,,,0.61,86.000000,,2013-05-05 23:52:00,
2013-05-05 20:01:00,50.0,48.0,-100.00,WSW,254,9.0,17.0,92,0.01,,,0.61,86.000000,,2013-05-06 00:01:00,
2013-05-05 21:11:00,51.0,47.0,-100.00,WSW,246,9.0,17.0,86,-99.99,,,0.62,0.000000,,2013-05-06 01:11:00,
2013-05-05 21:32:00,51.0,47.0,-100.00,WSW,246,9.0,17.0,86,-99.99,,,0.62,0.000000,,2013-05-06 01:32:00,
2013-05-05 21:42:00,51.0,47.0,-100.00,WSW,246,9.0,17.0,86,-99.99,,,0.62,0.000000,,2013-05-06 01:42:00,
2013-05-05 21:52:00,51.0,47.0,-100.00,WSW,246,9.0,17.0,86,-99.99,,,0.62,0.000000,,2013-05-06 01:52:00,
2013-05-05 22:02:00,51.0,47.0,-100.00,WSW,246,9.0,17.0,86,-99.99,,,0.62,0.000000,,2013-05-06 02:02:00,
2013-05-05 22:11:00,50.0,46.0,-100.00,WSW,253,7.0,17.0,86,0.02,,,0.64,0.000000,,2013-05-06 02:11:00,
2013-05-05 22:32:00,50.0,46.0,-100.00,WSW,253,7.0,17.0,86,0.02,,,0.64,0.000000,,2013-05-06 02:32:00,
2013-05-05 22:42:00,50.0,46.0,-100.00,WSW,253,7.0,17.0,86,0.02,,,0.64,0.000000,,2013-05-06 02:42:00,
2013-05-05 22:52:00,50.0,46.0,-100.00,WSW,253,7.0,17.0,86,0.02,,,0.64,0.000000,,2013-05-06 02:52:00,
2013-05-05 23:02:00,50.0,46.0,-100.00,WSW,253,7.0,17.0,86,0.02,,,0.64,0.000000,,2013-05-06 03:02:00,
2013-05-05 23:11:00,51.0,49.0,-100.00,WSW,257,8.0,14.0,92,0.02,,,0.66,0.000000,,2013-05-06 03:11:00,
2013-05-05 23:33:00,51.0,49.0,-100.00,WSW,257,8.0,14.0,92,0.02,,,0.66,0.000000,,2013-05-06 03:33:00,
2013-05-05 23:43:00,51.0,49.0,-100.00,WSW,257,8.0,14.0,92,0.02,,,0.66,0.000000,,2013-05-06 03:43:00,
2013-05-05 23:53:00,51.0,49.0,-100.00,WSW,257,8.0,14.0,92,0.02,,,0.66,0.000000,,2013-05-06 03:53:00,